Location: ????????
(56.1167°N, 38.6333°E)
Time: 11:35:00
(UTC+00:00)

Cosmos 1869 - Pass Details

Date: 18 November 2025
Orbit: 453 x 481 km, 82.5° (Epoch: 09 December)

Event Time Altitude Azimuth Distance (km) Brightness Sun altitude
Rises 15:09:20 0° 190° (S) 2,486 7.0 -15.8°
Reaches altitude 10° 15:11:25 10° 190° (S) 1,611 6.0 -16.1°
Maximum altitude 15:14:56 87° 103° (ESE) 468 2.8 -16.6°
Enters shadow 15:17:52 14° 13° (NNE) 1,369 5.1 -17.0°
